Weather History for Pensacola NAS, FL

Change the Weather History Date:

Thursday, January 17, 2013

  Actual Average Record
Temperature  
Mean Temperature 6 °C -  
Max Temperature 9 °C 15 °C - (-1)
Min Temperature 3 °C 5 °C - (-1)
Degree Days  
Heating Degree Days 22    
Moisture  
Dew Point 3 °C    
Average Humidity 83    
Maximum Humidity 100    
Minimum Humidity 61    
Precipitation  
Precipitation 0.00 mm - - ()
Sea Level Pressure  
Sea Level Pressure 1021 hPa    
Wind  
Wind Speed 14 km/h (NW)    
Max Wind Speed 34 km/h    
Max Gust Speed 48 km/h    
Visibility 15 kilometers    
Events Rain    
Averages and records for this station are not official NWS values.
T = Trace of Precipitation, MM = Missing Value Source: NWS Daily Summary

Daily Weather History Graph

Daily Weather History Graph

Search for Another Location

Airport:

Trip Planner

Search our weather history database for the weather conditions in past years. The results will help you decide how hot, cold, wet, or windy it might be!

Date:

Astronomy

Jan. 17, 2013 Rise Set
Actual Time 6:46 AM CST 5:13 PM CST
Civil Twilight 6:20 AM CST 5:38 PM CST
Nautical Twilight 5:51 AM CST 6:08 PM CST
Astronomical Twilight 5:22 AM CST 6:37 PM CST
Moon 10:23 AM CST (1/17) 11:30 PM CST (1/17)
Length of Visible Light 11h 18m
Length of Day
10h 26m
Waxing Crescent, 38% of the Moon is Illuminated
Jan 17
Waxing Crescent
Jan 18
First Quarter
Jan 26
Full
Feb 3
Last Quarter
Feb 10
New

Hourly Weather History & Observations

Time (CST) Temp. Windchill Dew Point Humidity Pressure Visibility Wind Dir Wind Speed Gust Speed Precip Events Conditions
12:56 AM 7.2 °C 5.5 °C 7.2 °C 100% 1017.1 hPa 9.7 km NW 9.3 km/h / 2.6 m/s - 0.0 mm   Overcast
1:47 AM 7.0 °C 5.7 °C 7.0 °C 100% 1017.2 hPa 16.1 km West 7.4 km/h / 2.1 m/s - N/A   Overcast
1:56 AM 6.7 °C 5.3 °C 6.7 °C 100% 1017.1 hPa 14.5 km West 7.4 km/h / 2.1 m/s - N/A   Overcast
2:56 AM 6.7 °C 4.9 °C 6.7 °C 100% 1017.2 hPa 12.9 km West 9.3 km/h / 2.6 m/s - N/A   Overcast
3:56 AM 6.1 °C 2.4 °C 5.6 °C 97% 1017.4 hPa 12.9 km West 20.4 km/h / 5.7 m/s 35.2 km/h / 9.8 m/s 0.0 mm Rain Light Rain
4:04 AM 6.0 °C 2.8 °C 5.0 °C 93% 1017.5 hPa 11.3 km West 16.7 km/h / 4.6 m/s 37.0 km/h / 10.3 m/s 0.0 mm Rain Light Rain
4:23 AM 6.0 °C 2.8 °C 5.0 °C 93% 1017.8 hPa 11.3 km West 16.7 km/h / 4.6 m/s 29.6 km/h / 8.2 m/s 0.0 mm Rain Light Rain
4:36 AM 6.0 °C 2.5 °C 4.0 °C 87% 1018.2 hPa 16.1 km West 18.5 km/h / 5.1 m/s 33.3 km/h / 9.3 m/s 0.0 mm   Overcast
4:56 AM 4.4 °C 1.4 °C 3.9 °C 97% 1018.7 hPa 16.1 km WNW 13.0 km/h / 3.6 m/s 27.8 km/h / 7.7 m/s 0.0 mm   Overcast
5:11 AM 4.0 °C 1.2 °C 4.0 °C 100% 1018.5 hPa 16.1 km West 11.1 km/h / 3.1 m/s - N/A   Overcast
5:43 AM 4.0 °C 0.6 °C 3.0 °C 93% 1018.5 hPa 16.1 km West 14.8 km/h / 4.1 m/s 33.3 km/h / 9.3 m/s N/A   Overcast
5:56 AM 3.9 °C 1.1 °C 2.8 °C 93% 1018.8 hPa 16.1 km West 11.1 km/h / 3.1 m/s - N/A   Overcast
6:56 AM 3.9 °C 0.4 °C 2.2 °C 89% 1019.2 hPa 16.1 km West 14.8 km/h / 4.1 m/s 25.9 km/h / 7.2 m/s N/A   Overcast
7:51 AM 3.0 °C 0.0 °C 2.0 °C 93% 1019.9 hPa 14.5 km WNW 11.1 km/h / 3.1 m/s 25.9 km/h / 7.2 m/s 0.0 mm   Light Drizzle
7:56 AM 3.3 °C -1.1 °C 2.2 °C 93% 1020.3 hPa 16.1 km WNW 20.4 km/h / 5.7 m/s 37.0 km/h / 10.3 m/s 0.0 mm   Light Drizzle
8:08 AM 3.0 °C -1.5 °C 2.0 °C 93% 1020.5 hPa 16.1 km WNW 20.4 km/h / 5.7 m/s 40.7 km/h / 11.3 m/s 0.0 mm   Overcast
8:56 AM 3.3 °C -1.3 °C 0.6 °C 83% 1021.4 hPa 16.1 km WNW 22.2 km/h / 6.2 m/s 42.6 km/h / 11.8 m/s 0.0 mm   Overcast
9:56 AM 3.9 °C -0.8 °C 0.0 °C 76% 1021.7 hPa 16.1 km NW 24.1 km/h / 6.7 m/s 42.6 km/h / 11.8 m/s N/A   Overcast
10:56 AM 5.0 °C 1.5 °C 0.0 °C 70% 1021.6 hPa 16.1 km NW 16.7 km/h / 4.6 m/s 46.3 km/h / 12.9 m/s N/A   Mostly Cloudy
11:56 AM 5.0 °C 0.8 °C 0.0 °C 70% 1021.4 hPa 16.1 km NW 22.2 km/h / 6.2 m/s 37.0 km/h / 10.3 m/s N/A   Mostly Cloudy
12:56 PM 6.1 °C 2.2 °C 0.6 °C 68% 1020.9 hPa 16.1 km NW 22.2 km/h / 6.2 m/s 44.4 km/h / 12.3 m/s N/A   Mostly Cloudy
1:56 PM 8.3 °C - 1.1 °C 61% 1020.7 hPa 16.1 km NNW 33.3 km/h / 9.3 m/s 48.2 km/h / 13.4 m/s N/A   Mostly Cloudy
2:56 PM 8.9 °C - 1.7 °C 61% 1021.2 hPa 16.1 km NNW 24.1 km/h / 6.7 m/s 42.6 km/h / 11.8 m/s N/A   Mostly Cloudy
3:56 PM 9.4 °C - 2.2 °C 61% 1022.2 hPa 16.1 km NNW 25.9 km/h / 7.2 m/s 37.0 km/h / 10.3 m/s N/A   Mostly Cloudy
4:56 PM 8.3 °C - 2.2 °C 66% 1022.9 hPa 16.1 km NNW 20.4 km/h / 5.7 m/s 35.2 km/h / 9.8 m/s N/A   Scattered Clouds
5:56 PM 7.8 °C 4.8 °C 1.7 °C 66% 1024.4 hPa 16.1 km NW 18.5 km/h / 5.1 m/s 35.2 km/h / 9.8 m/s N/A   Scattered Clouds
6:56 PM 7.2 °C 3.6 °C 1.7 °C 68% 1025.5 hPa 16.1 km NNW 22.2 km/h / 6.2 m/s 35.2 km/h / 9.8 m/s N/A   Clear
7:56 PM 6.7 °C 3.0 °C 1.7 °C 71% 1026.2 hPa 16.1 km NNW 22.2 km/h / 6.2 m/s - N/A   Clear
8:56 PM 6.1 °C 2.4 °C 1.7 °C 74% 1026.5 hPa 16.1 km NNW 20.4 km/h / 5.7 m/s 33.3 km/h / 9.3 m/s N/A   Clear
9:56 PM 6.1 °C 2.9 °C 1.7 °C 74% 1026.6 hPa 16.1 km NNW 16.7 km/h / 4.6 m/s 35.2 km/h / 9.8 m/s N/A   Clear
10:56 PM 6.1 °C 2.4 °C 1.7 °C 74% 1026.1 hPa 16.1 km NNW 20.4 km/h / 5.7 m/s 31.5 km/h / 8.7 m/s N/A   Clear
11:56 PM 5.6 °C 1.8 °C 2.2 °C 79% 1026.4 hPa 16.1 km NW 20.4 km/h / 5.7 m/s 33.3 km/h / 9.3 m/s N/A   Clear